Location: Mahannah Oil Field
(37.4664°N, 96.6003°W)
Time: 04:02:33
(UTC+00:00)

Vanguard 2 - Pass Details

Date: 21 June 2021
Orbit: 552 x 2937 km, 32.9° (Epoch: 28 July)

Event Time Altitude Azimuth Distance (km) Brightness Sun altitude
Rises 02:00:55 0° 266° (W) 5,839 13.0 -2.6°
Reaches altitude 10° 02:05:23 10° 264° (W) 4,466 12.3 -3.3°
Maximum altitude 02:16:31 65° 187° (S) 1,454 8.8 -5.1°
Drops below altitude 10° 02:23:02 10° 106° (ESE) 2,697 9.7 -6.2°
Enters shadow 02:24:00 - 105° (ESE) 3,028 10.0 -6.3°
